User: anonymous   Login
Location: �bnet
(46.9957°N, 8.4908°E)
Time: 15:44:05
(UTC+00:00)
Language:

Cosmos 858 Rocket - Orbit

View from above orbital plane
View from above orbital plane
View from above satellite
View from above satellite

Ground track
Ground track

The orbit data is extracted from the following two-line orbital elements,

1 09444U 76098B   21207.61833488  .00000003  00000-0  96517-5 0  9990
2 09444  74.0505  56.8242 0013510 192.0716 168.0116 14.37958983784309
Epoch (UTC): 26 July 2021 14:50:24
Eccentricity: 0.0013510
inclination: 74.0505°
perigee height: 755 km
apogee height: 775 km
right ascension of ascending node: 56.8242°
argument of perigee: 192.0716°
revolutions per day: 14.37958983
mean anomaly at epoch: 168.0116°
orbit number at epoch: 78430

The dashed part of the orbit path shows where the satellite is in the earth's shadow,  

DLR